TimeHST,TemperatureF,Dew PointF,Humidity,Sea Level PressureIn,VisibilityMPH,Wind Direction,Wind SpeedMPH,Gust SpeedMPH,PrecipitationIn,Events,Conditions,WindDirDegrees,DateUTC
1:54 AM,73.9,68.0,82,30.02,10.0,NE,16.1,-,N/A,,Partly Cloudy,50,2012-10-29 11:54:00
2:54 AM,73.9,66.9,79,30.00,10.0,NE,16.1,-,N/A,,Clear,40,2012-10-29 12:54:00
3:54 AM,75.0,66.9,76,30.00,10.0,NE,17.3,25.3,N/A,,Clear,40,2012-10-29 13:54:00
4:54 AM,73.9,66.0,76,30.02,10.0,NE,12.7,-,N/A,,Clear,50,2012-10-29 14:54:00
5:54 AM,72.0,66.0,81,30.04,10.0,NNE,15.0,-,N/A,,Partly Cloudy,30,2012-10-29 15:54:00
6:54 AM,73.9,68.0,82,30.06,10.0,ENE,13.8,-,N/A,,Partly Cloudy,60,2012-10-29 16:54:00
8:54 AM,80.1,69.1,69,30.08,10.0,NE,17.3,23.0,N/A,,Partly Cloudy,50,2012-10-29 18:54:00
9:54 AM,82.0,70.0,67,30.09,10.0,NE,19.6,24.2,N/A,,Partly Cloudy,50,2012-10-29 19:54:00
10:54 AM,82.9,71.1,67,30.06,10.0,NE,26.5,32.2,N/A,,Partly Cloudy,40,2012-10-29 20:54:00
11:54 AM,84.0,71.1,65,30.04,10.0,NE,24.2,32.2,N/A,,Partly Cloudy,40,2012-10-29 21:54:00
12:54 PM,82.0,72.0,71,30.01,10.0,NE,26.5,34.5,N/A,,Partly Cloudy,40,2012-10-29 22:54:00
1:54 PM,82.9,71.1,67,29.99,10.0,NE,27.6,35.7,N/A,,Partly Cloudy,40,2012-10-29 23:54:00
2:54 PM,79.0,73.0,82,29.98,10.0,NE,26.5,35.7,N/A,,Scattered Clouds,50,2012-10-30 00:54:00
3:54 PM,80.1,73.9,81,29.98,10.0,NE,26.5,-,N/A,,Partly Cloudy,40,2012-10-30 01:54:00
4:54 PM,79.0,72.0,79,29.99,10.0,NE,18.4,29.9,N/A,,Scattered Clouds,40,2012-10-30 02:54:00
5:54 PM,75.9,72.0,87,30.01,10.0,NE,17.3,26.5,N/A,,Scattered Clouds,50,2012-10-30 03:54:00
6:54 PM,75.0,71.1,87,30.04,10.0,NE,19.6,27.6,N/A,,Clear,50,2012-10-30 04:54:00
7:54 PM,73.9,69.1,85,30.06,10.0,NE,10.4,-,N/A,,Clear,50,2012-10-30 05:54:00
8:54 PM,75.0,71.1,87,30.08,10.0,NE,16.1,-,N/A,,Scattered Clouds,40,2012-10-30 06:54:00
9:54 PM,75.0,71.1,87,30.08,10.0,NE,11.5,-,0.00,,Mostly Cloudy,50,2012-10-30 07:54:00
10:54 PM,73.9,69.1,85,30.08,10.0,NE,11.5,-,N/A,,Clear,50,2012-10-30 08:54:00
11:54 PM,73.9,68.0,82,30.08,10.0,NE,13.8,-,N/A,,Clear,40,2012-10-30 09:54:00